Location: Hilton Head Island
(32.2163°N, 80.7526°W)
Time: 02:31:04
(UTC-04:00)

Tiros 1 despin weight - Pass Details

Date: 19 February 2026
Orbit: 556 x 593 km, 48.2° (Epoch: 9 March)

Event Time Altitude Azimuth Distance (km) Brightness Sun altitude
Rises 13:32:05 0° 222° (SW) 2,750 ? 44.7°
Reaches altitude 10° 13:34:21 10° 220° (SW) 1,850 ? 44.6°
Maximum altitude 13:38:33 67° 138° (SE) 610 ? 44.3°
Drops below altitude 10° 13:42:43 10° 56° (NE) 1,840 ? 43.9°
Sets 13:44:58 0° 53° (NE) 2,734 ? 43.7°
